When you browse on this site, cookies collect data to enhance your experience and personalize the content and advertising you see.
Visit our Privacy Policy to learn more. By continuing to use the site, you agree to this use of cookies and data.
  • In Hungary
  • List of Countries
  • For 7 days
  • Water Temperature
  • Weather Map
  • News
  • Weather Widgets
  • user-avatar
    Login

    Hourly Weather Duiven

    Today, 25 August, Sunday

    Time Temperature Precipitation Wind Pressure Humidity
    00:00 +19°C° 0 mm 2 mps 763 mmHg 65%
    01:00 +19°C° 0 mm 2 mps 763 mmHg 66%
    02:00 +18°C° 0 mm 2 mps 763 mmHg 67%
    03:00 +19°C° 0 mm 1 mps 763 mmHg 68%
    04:00 +19°C° 0 mm 1 mps 763 mmHg 69%
    05:00 +19°C° 0 mm 1 mps 763 mmHg 70%
    06:00 +20°C° 0 mm 1 mps 763 mmHg 71%
    07:00 +22°C° 0 mm 1 mps 763 mmHg 66%
    08:00 +24°C° 0 mm 1 mps 763 mmHg 60%
    09:00 +26°C° 0 mm 1 mps 763 mmHg 54%
    10:00 +28°C° 0 mm 1 mps 763 mmHg 51%
    11:00 +29°C° 0 mm 1 mps 763 mmHg 48%
    12:00 +30°C° 0 mm 1 mps 763 mmHg 45%
    13:00 +30°C° 0 mm 1 mps 763 mmHg 43%
    14:00 +31°C° 0 mm 1 mps 763 mmHg 42%
    15:00 +31°C° 0 mm 1 mps 763 mmHg 40%
    16:00 +29°C° 0 mm 1 mps 763 mmHg 47%
    17:00 +28°C° 0 mm 1 mps 763 mmHg 53%
    18:00 +26°C° 0 mm 2 mps 763 mmHg 60%
    19:00 +25°C° 0 mm 2 mps 763 mmHg 63%
    20:00 +24°C° 0 mm 2 mps 763 mmHg 66%
    21:00 +23°C° 0 mm 2 mps 763 mmHg 70%
    22:00 +23°C° 0 mm 2 mps 763 mmHg 75%
    23:00 +21°C° 0 mm 2 mps 763 mmHg 81%

    Tomorrow, 26 August, Monday

    Time Temperature Precipitation Wind Pressure Humidity
    00:00 +21°C° 0 mm 2 mps 763 mmHg 86%
    01:00 +20°C° 0 mm 2 mps 763 mmHg 87%
    02:00 +20°C° 0 mm 2 mps 763 mmHg 89%
    03:00 +20°C° 0 mm 2 mps 763 mmHg 90%
    04:00 +20°C° 0 mm 2 mps 763 mmHg 89%
    05:00 +21°C° 0 mm 2 mps 763 mmHg 87%
    06:00 +21°C° 0 mm 2 mps 762 mmHg 86%
    07:00 +24°C° 0 mm 2 mps 762 mmHg 79%
    08:00 +26°C° 0 mm 2 mps 762 mmHg 73%
    09:00 +28°C° 0 mm 2 mps 762 mmHg 66%
    10:00 +29°C° 0 mm 2 mps 762 mmHg 62%
    11:00 +30°C° 0 mm 2 mps 762 mmHg 58%
    12:00 +31°C° 0 mm 2 mps 762 mmHg 54%
    13:00 +31°C° 0.1 mm 2 mps 762 mmHg 54%
    14:00 +31°C° 0.1 mm 2 mps 761 mmHg 53%
    15:00 +31°C° 0.1 mm 1 mps 761 mmHg 53%
    16:00 +30°C° 0.5 mm 2 mps 761 mmHg 60%
    17:00 +28°C° 0.5 mm 2 mps 761 mmHg 67%
    18:00 +27°C° 0.5 mm 2 mps 761 mmHg 74%
    19:00 +26°C° 1 mm 2 mps 761 mmHg 78%
    20:00 +24°C° 1 mm 3 mps 761 mmHg 83%
    21:00 +22°C° 1 mm 3 mps 761 mmHg 87%
    22:00 +23°C° 0.1 mm 2 mps 761 mmHg 89%
    23:00 +23°C° 0.1 mm 2 mps 761 mmHg 90%

    Day after tomorrow, 27 August, Tuesday

    Time Temperature Precipitation Wind Pressure Humidity
    00:00 +21°C° 0.1 mm 2 mps 761 mmHg 91%
    01:00 +22°C° 0 mm 1 mps 761 mmHg 91%
    02:00 +22°C° 0 mm 1 mps 761 mmHg 91%
    03:00 +21°C° 0 mm 1 mps 761 mmHg 90%
    04:00 +22°C° 0 mm 1 mps 761 mmHg 89%
    05:00 +21°C° 0 mm 0 mps 761 mmHg 88%
    06:00 +21°C° 0 mm 0 mps 761 mmHg 86%
    07:00 +23°C° 0 mm 0 mps 761 mmHg 80%
    08:00 +26°C° 0 mm 1 mps 761 mmHg 74%
    09:00 +28°C° 0 mm 1 mps 761 mmHg 68%
    10:00 +29°C° 0 mm 1 mps 761 mmHg 62%
    11:00 +29°C° 0 mm 0 mps 761 mmHg 56%
    12:00 +30°C° 0 mm 0 mps 761 mmHg 50%
    13:00 +32°C° 0 mm 1 mps 760 mmHg 48%
    14:00 +32°C° 0 mm 1 mps 760 mmHg 47%
    15:00 +32°C° 0 mm 2 mps 760 mmHg 46%
    16:00 +30°C° 0 mm 2 mps 760 mmHg 53%
    17:00 +28°C° 0 mm 2 mps 760 mmHg 59%
    18:00 +27°C° 0 mm 2 mps 760 mmHg 66%
    19:00 +26°C° 0 mm 2 mps 760 mmHg 72%
    20:00 +24°C° 0 mm 2 mps 760 mmHg 78%
    21:00 +23°C° 0 mm 2 mps 761 mmHg 85%
    22:00 +23°C° 0 mm 2 mps 760 mmHg 86%
    23:00 +23°C° 0 mm 2 mps 760 mmHg 87%

    28 August, Wednesday

    Time Temperature Precipitation Wind Pressure Humidity
    00:00 +22°C° 0 mm 1 mps 760 mmHg 88%
    01:00 +22°C° 0 mm 1 mps 760 mmHg 88%
    02:00 +22°C° 0 mm 1 mps 760 mmHg 88%
    03:00 +22°C° 0 mm 1 mps 760 mmHg 89%
    04:00 +22°C° 0 mm 1 mps 759 mmHg 87%
    05:00 +23°C° 0 mm 1 mps 759 mmHg 85%
    06:00 +23°C° 0 mm 1 mps 759 mmHg 84%
    07:00 +25°C° 0 mm 1 mps 759 mmHg 77%
    08:00 +26°C° 0 mm 1 mps 759 mmHg 71%
    09:00 +28°C° 0 mm 1 mps 759 mmHg 65%
    10:00 +29°C° 0 mm 2 mps 758 mmHg 61%
    11:00 +30°C° 0 mm 2 mps 758 mmHg 57%
    12:00 +31°C° 0 mm 2 mps 758 mmHg 53%
    13:00 +31°C° 0 mm 2 mps 757 mmHg 51%
    14:00 +31°C° 0 mm 2 mps 757 mmHg 49%
    15:00 +31°C° 0 mm 2 mps 757 mmHg 47%
    16:00 +30°C° 0 mm 1 mps 757 mmHg 50%
    17:00 +29°C° 0 mm 1 mps 757 mmHg 54%
    18:00 +28°C° 0 mm 1 mps 757 mmHg 57%
    19:00 +26°C° 0.3 mm 1 mps 757 mmHg 62%
    20:00 +25°C° 0.3 mm 2 mps 757 mmHg 66%
    21:00 +24°C° 0.3 mm 2 mps 757 mmHg 70%
    22:00 +23°C° 0.5 mm 2 mps 757 mmHg 75%
    23:00 +21°C° 0.5 mm 3 mps 757 mmHg 79%

    29 August, Thursday

    Time Temperature Precipitation Wind Pressure Humidity
    00:00 +21°C° 0.5 mm 3 mps 757 mmHg 83%
    01:00 +21°C° 0 mm 3 mps 757 mmHg 83%
    02:00 +21°C° 0 mm 2 mps 757 mmHg 83%
    03:00 +21°C° 0 mm 2 mps 757 mmHg 83%
    04:00 +20°C° 0.1 mm 2 mps 757 mmHg 84%
    05:00 +20°C° 0.1 mm 2 mps 757 mmHg 85%
    06:00 +20°C° 0.1 mm 2 mps 757 mmHg 87%
    07:00 +20°C° 0.3 mm 3 mps 758 mmHg 86%
    08:00 +21°C° 0.3 mm 3 mps 758 mmHg 86%
    09:00 +21°C° 0.3 mm 4 mps 758 mmHg 85%
    10:00 +22°C° 0.1 mm 5 mps 759 mmHg 79%
    11:00 +23°C° 0.1 mm 5 mps 759 mmHg 73%
    12:00 +23°C° 0.1 mm 5 mps 759 mmHg 68%
    13:00 +23°C° 0 mm 6 mps 760 mmHg 65%
    14:00 +23°C° 0 mm 6 mps 760 mmHg 62%
    15:00 +22°C° 0 mm 6 mps 760 mmHg 59%
    16:00 +21°C° 0 mm 5 mps 761 mmHg 63%
    17:00 +19°C° 0 mm 5 mps 761 mmHg 68%
    18:00 +18°C° 0 mm 4 mps 762 mmHg 72%
    19:00 +17°C° 0 mm 3 mps 762 mmHg 73%
    20:00 +16°C° 0 mm 3 mps 763 mmHg 74%
    21:00 +15°C° 0 mm 2 mps 763 mmHg 75%
    22:00 +14°C° 0 mm 2 mps 764 mmHg 75%
    23:00 +14°C° 0 mm 2 mps 764 mmHg 74%

    30 August, Friday

    Time Temperature Precipitation Wind Pressure Humidity
    00:00 +13°C° 0 mm 2 mps 764 mmHg 73%
    01:00 +13°C° 0 mm 2 mps 764 mmHg 77%
    02:00 +13°C° 0 mm 2 mps 764 mmHg 80%
    03:00 +13°C° 0 mm 2 mps 764 mmHg 83%
    04:00 +13°C° 0 mm 2 mps 764 mmHg 84%
    05:00 +12°C° 0 mm 3 mps 765 mmHg 84%
    06:00 +12°C° 0 mm 3 mps 765 mmHg 85%
    07:00 +14°C° 0 mm 3 mps 765 mmHg 78%
    08:00 +17°C° 0 mm 3 mps 765 mmHg 72%
    09:00 +19°C° 0 mm 3 mps 765 mmHg 65%
    10:00 +20°C° 0 mm 3 mps 765 mmHg 61%
    11:00 +21°C° 0 mm 3 mps 765 mmHg 57%
    12:00 +22°C° 0 mm 3 mps 765 mmHg 52%
    13:00 +22°C° 0 mm 3 mps 764 mmHg 53%
    14:00 +22°C° 0 mm 3 mps 764 mmHg 54%
    15:00 +23°C° 0 mm 2 mps 764 mmHg 54%
    16:00 +21°C° 0 mm 2 mps 764 mmHg 60%
    17:00 +20°C° 0 mm 2 mps 764 mmHg 65%
    18:00 +20°C° 0 mm 1 mps 764 mmHg 71%
    19:00 +18°C° 0 mm 1 mps 764 mmHg 74%
    20:00 +16°C° 0 mm 1 mps 764 mmHg 77%
    21:00 +14°C° 0 mm 0 mps 764 mmHg 81%
    22:00 +14°C° 0 mm 0 mps 764 mmHg 81%
    23:00 +15°C° 0 mm 1 mps 763 mmHg 81%
    Show more